Tracking 19792 objects as of 16-Jul-2019
HD Live streaming from Space Station
objects crossing your sky now

COSMOS 1823 DEB

Track COSMOS 1823 DEB now!
10-day predictions


NORAD ID: 18802
Int'l Code: 1987-020AN
Perigee: 1,473.0 km
Apogee: 1,638.1 km
Inclination: 73.6 °
Period: 117.1 minutes
Semi major axis: 7926 km
RCS: 0.0581 m2 (small)
Launch date: February 20, 1987
Source: Commonwealth of Independent States (former USSR) (CIS)
Launch site: PLESETSK MISSILE AND SPACE COMPLEX (PKMTR)

Note: This is SATELLITE DEBRIS
aabbcc
Your satellite tracking list
Your tracking list is empty




NASA's NSSDC Master Catalog

Two Line Element Set (TLE):
1 18802U 87020AN  19196.67523244 +.00000055 +00000-0 +60781-3 0  9990
2 18802 073.5885 181.1364 0104159 296.6055 180.4872 12.30204653416034
Source of the keplerian elements: AFSPC